カタログに戻る

STARLINK-2615

運用中通信VLEO
NORAD 48678·PAYLOAD·🇺🇸 United States

打ち上げ May 26, 2021 から Cape Canaveral Space Force Station

Loading…

次のパス (今後24時間)

TLE

最新Source: CelesTrak SupGP

元期: Sep 14, 2026, 21:38 UTC

1 48678C 21044AS  26257.90187500  .00013449  00000+0  43248-3 0  2577
2 48678  53.1586 303.2410 0001163  83.8542 138.3974 15.31694546    17

AllMySatでSTARLINK-2615をリアルタイム追跡

Download on the App Store